Back to catalog

FENGYUN 1C DEB

AliveSSO
NORAD 32197·DEBRIS·🇨🇳 China

Launched May 10, 1999 from Taiyuan Satellite Launch Center

Loading…

Next Passes (next 24 hours)

TLE

FreshSource: Space-Track

Epoch: Sep 14, 2026, 14:42 UTC

1 32197U 99025CUT 26257.61281681  .00000509  00000-0  17573-3 0  9992
2 32197  98.8952 179.3240 0161362 142.0178 340.2105 14.33233662983742

Track FENGYUN 1C DEB in real time with AllMySat

Download on the App Store